Time,TemperatureF,DewpointF,PressureIn,WindDirection,WindDirectionDegrees,WindSpeedMPH,WindSpeedGustMPH,Humidity,HourlyPrecipIn,Conditions,Clouds,dailyrainin,SoftwareType,DateUTC
2013-02-20 00:01:00,44.8,32.6,29.38,WNW,295,0.0,0.0,62,0.00,,---,0.00,VWS V14.00,2013-02-20 08:01:00,
2013-02-20 00:06:00,44.8,32.6,29.41,WNW,295,0.0,0.0,62,0.00,,---,0.00,VWS V14.00,2013-02-20 08:06:00,
2013-02-20 00:11:00,44.8,32.6,29.41,WNW,295,0.0,0.0,62,0.00,,---,0.00,VWS V14.00,2013-02-20 08:11:00,
2013-02-20 00:16:00,44.6,32.4,29.41,WNW,295,0.0,0.0,62,0.00,,---,0.00,VWS V14.00,2013-02-20 08:16:00,
2013-02-20 00:21:00,44.6,32.4,29.41,WNW,295,0.0,0.0,62,0.00,,---,0.00,VWS V14.00,2013-02-20 08:21:00,
2013-02-20 00:26:00,44.6,32.4,29.41,WNW,295,0.0,0.0,62,0.00,,---,0.00,VWS V14.00,2013-02-20 08:26:00,
2013-02-20 00:31:00,44.4,32.2,29.41,WNW,295,0.0,0.0,62,0.00,,---,0.00,VWS V14.00,2013-02-20 08:31:00,
2013-02-20 00:36:00,44.2,32.1,29.41,WNW,295,0.0,0.0,62,0.00,,---,0.00,VWS V14.00,2013-02-20 08:36:00,
2013-02-20 00:41:00,44.2,32.1,29.41,WNW,295,0.0,0.0,62,0.00,,---,0.00,VWS V14.00,2013-02-20 08:41:00,
2013-02-20 00:46:00,44.1,31.9,29.41,WNW,295,0.0,0.0,62,0.00,,---,0.00,VWS V14.00,2013-02-20 08:46:00,
2013-02-20 00:51:00,43.9,31.7,29.41,WNW,295,0.0,0.0,62,0.00,,---,0.00,VWS V14.00,2013-02-20 08:51:00,
2013-02-20 00:56:00,43.7,31.5,29.41,WNW,295,0.0,0.0,62,0.00,,---,0.00,VWS V14.00,2013-02-20 08:56:00,
2013-02-20 01:01:00,43.5,31.8,29.41,WNW,295,0.0,0.0,63,0.00,,---,0.00,VWS V14.00,2013-02-20 09:01:00,
2013-02-20 01:06:00,43.5,31.8,29.41,WNW,295,0.0,0.0,63,0.00,,---,0.00,VWS V14.00,2013-02-20 09:06:00,
2013-02-20 01:11:00,43.5,31.8,29.41,WNW,295,0.0,0.0,63,0.00,,---,0.00,VWS V14.00,2013-02-20 09:11:00,
2013-02-20 01:16:00,43.5,31.8,29.41,WNW,295,0.0,0.0,63,0.00,,---,0.00,VWS V14.00,2013-02-20 09:16:00,
2013-02-20 01:21:00,43.5,31.8,29.41,WNW,295,0.0,0.0,63,0.00,,---,0.00,VWS V14.00,2013-02-20 09:21:00,
2013-02-20 01:26:00,43.5,31.8,29.41,WNW,295,0.0,0.0,63,0.00,,---,0.00,VWS V14.00,2013-02-20 09:26:00,
2013-02-20 01:31:00,43.5,32.2,29.41,WNW,295,0.0,0.0,64,0.00,,---,0.00,VWS V14.00,2013-02-20 09:31:00,
2013-02-20 01:36:00,43.5,32.2,29.41,WNW,295,0.0,0.0,64,0.00,,---,0.00,VWS V14.00,2013-02-20 09:36:00,
2013-02-20 01:41:00,43.3,32.0,29.41,WNW,295,0.0,0.0,64,0.00,,---,0.00,VWS V14.00,2013-02-20 09:41:00,
2013-02-20 01:46:00,43.2,31.8,29.41,WNW,295,0.0,0.0,64,0.00,,---,0.00,VWS V14.00,2013-02-20 09:46:00,
2013-02-20 01:51:00,43.2,31.8,29.41,WNW,295,0.0,0.0,64,0.00,,---,0.00,VWS V14.00,2013-02-20 09:51:00,
2013-02-20 01:56:00,43.0,31.6,29.41,WNW,295,0.0,0.0,64,0.00,,---,0.00,VWS V14.00,2013-02-20 09:56:00,
2013-02-20 02:01:00,43.0,31.6,29.41,WNW,295,0.0,0.0,64,0.00,,---,0.00,VWS V14.00,2013-02-20 10:01:00,
2013-02-20 02:06:00,42.8,31.5,29.41,WNW,295,0.0,0.0,64,0.00,,---,0.00,VWS V14.00,2013-02-20 10:06:00,
2013-02-20 02:11:00,42.8,31.9,29.41,WNW,295,0.0,0.0,65,0.00,,---,0.00,VWS V14.00,2013-02-20 10:11:00,
2013-02-20 02:16:00,42.8,31.9,29.41,WNW,295,0.0,0.0,65,0.00,,---,0.00,VWS V14.00,2013-02-20 10:16:00,
2013-02-20 02:21:00,42.8,31.9,29.41,WNW,295,0.0,0.0,65,0.00,,---,0.00,VWS V14.00,2013-02-20 10:21:00,
2013-02-20 02:26:00,43.0,32.0,29.41,WNW,295,0.0,0.0,65,0.00,,---,0.00,VWS V14.00,2013-02-20 10:26:00,
2013-02-20 02:31:00,43.0,32.0,29.41,WNW,295,0.0,0.0,65,0.00,,---,0.00,VWS V14.00,2013-02-20 10:31:00,
2013-02-20 02:36:00,43.0,32.0,29.41,WNW,295,0.0,0.0,65,0.00,,---,0.00,VWS V14.00,2013-02-20 10:36:00,
2013-02-20 02:41:00,43.2,32.6,29.41,WNW,295,0.0,0.0,66,0.00,,---,0.00,VWS V14.00,2013-02-20 10:41:00,
2013-02-20 02:46:00,43.3,32.8,29.41,WNW,295,0.0,0.0,66,0.00,,---,0.00,VWS V14.00,2013-02-20 10:46:00,
2013-02-20 02:51:00,43.3,32.8,29.41,WNW,295,0.0,0.0,66,0.00,,---,0.00,VWS V14.00,2013-02-20 10:51:00,
2013-02-20 02:56:00,43.5,32.9,29.41,WNW,295,0.0,0.0,66,0.00,,---,0.00,VWS V14.00,2013-02-20 10:56:00,
2013-02-20 03:01:00,43.5,32.9,29.41,WNW,295,0.0,0.0,66,0.00,,---,0.00,VWS V14.00,2013-02-20 11:01:00,
2013-02-20 03:06:00,43.5,32.9,29.41,WNW,295,0.0,0.0,66,0.00,,---,0.00,VWS V14.00,2013-02-20 11:06:00,
2013-02-20 03:11:00,43.5,32.9,29.41,WNW,295,0.0,0.0,66,0.00,,---,0.00,VWS V14.00,2013-02-20 11:11:00,
2013-02-20 03:16:00,43.3,32.8,29.41,WNW,295,0.0,0.0,66,0.00,,---,0.00,VWS V14.00,2013-02-20 11:16:00,
2013-02-20 03:21:00,43.2,32.6,29.41,WNW,295,0.0,0.0,66,0.00,,---,0.00,VWS V14.00,2013-02-20 11:21:00,
2013-02-20 03:26:00,43.2,32.6,29.41,WNW,295,0.0,0.0,66,0.00,,---,0.00,VWS V14.00,2013-02-20 11:26:00,
2013-02-20 03:31:00,43.2,32.6,29.41,WNW,295,0.0,0.0,66,0.00,,---,0.00,VWS V14.00,2013-02-20 11:31:00,
2013-02-20 03:36:00,43.0,32.8,29.41,WNW,295,0.0,0.0,67,0.00,,---,0.00,VWS V14.00,2013-02-20 11:36:00,
2013-02-20 03:41:00,42.8,32.6,29.41,WNW,295,0.0,0.0,67,0.00,,---,0.00,VWS V14.00,2013-02-20 11:41:00,
2013-02-20 03:46:00,43.0,33.2,29.41,WNW,295,0.0,0.0,68,0.00,,---,0.00,VWS V14.00,2013-02-20 11:46:00,
2013-02-20 03:51:00,43.0,33.2,29.41,WNW,295,0.0,0.0,68,0.00,,---,0.00,VWS V14.00,2013-02-20 11:51:00,
2013-02-20 03:56:00,43.0,33.2,29.41,WNW,295,0.0,0.0,68,0.00,,---,0.00,VWS V14.00,2013-02-20 11:56:00,
2013-02-20 04:01:00,43.0,33.2,29.41,WNW,295,0.0,0.0,68,0.00,,---,0.00,VWS V14.00,2013-02-20 12:01:00,
2013-02-20 04:06:00,42.8,33.0,29.41,WNW,295,0.0,0.0,68,0.00,,---,0.00,VWS V14.00,2013-02-20 12:06:00,
2013-02-20 04:11:00,42.8,33.0,29.41,WNW,295,0.0,0.0,68,0.00,,---,0.00,VWS V14.00,2013-02-20 12:11:00,
2013-02-20 04:16:00,42.8,33.0,29.41,WNW,295,0.0,0.0,68,0.00,,---,0.00,VWS V14.00,2013-02-20 12:16:00,
2013-02-20 04:21:00,42.8,33.3,29.41,WNW,295,0.0,0.0,69,0.00,,---,0.00,VWS V14.00,2013-02-20 12:21:00,
2013-02-20 04:26:00,42.8,33.3,29.41,WNW,295,0.0,0.0,69,0.00,,---,0.00,VWS V14.00,2013-02-20 12:26:00,
2013-02-20 04:31:00,42.8,33.3,29.41,WNW,295,0.0,0.0,69,0.00,,---,0.00,VWS V14.00,2013-02-20 12:31:00,
2013-02-20 04:36:00,42.6,33.2,29.41,WNW,295,0.0,0.0,69,0.00,,---,0.00,VWS V14.00,2013-02-20 12:36:00,
2013-02-20 04:41:00,42.6,33.2,29.41,WNW,295,0.0,0.0,69,0.00,,---,0.00,VWS V14.00,2013-02-20 12:41:00,
2013-02-20 04:46:00,42.6,33.2,29.41,WNW,295,0.0,0.0,69,0.00,,---,0.00,VWS V14.00,2013-02-20 12:46:00,
2013-02-20 04:51:00,42.8,33.3,29.41,WNW,295,0.0,0.0,69,0.00,,---,0.00,VWS V14.00,2013-02-20 12:51:00,
2013-02-20 04:56:00,42.8,33.3,29.41,WNW,295,0.0,0.0,69,0.00,,---,0.00,VWS V14.00,2013-02-20 12:56:00,
2013-02-20 05:01:00,42.6,33.2,29.41,WNW,295,0.0,0.0,69,0.00,,---,0.00,VWS V14.00,2013-02-20 13:01:00,
2013-02-20 05:06:00,42.4,33.4,29.41,WNW,295,0.0,0.0,70,0.00,,---,0.00,VWS V14.00,2013-02-20 13:06:00,
2013-02-20 05:11:00,42.4,33.4,29.41,WNW,295,0.0,0.0,70,0.00,,---,0.00,VWS V14.00,2013-02-20 13:11:00,
2013-02-20 05:16:00,42.4,33.4,29.41,WNW,295,0.0,0.0,70,0.00,,---,0.00,VWS V14.00,2013-02-20 13:16:00,
2013-02-20 05:21:00,42.6,33.5,29.44,WNW,295,0.0,0.0,70,0.00,,---,0.00,VWS V14.00,2013-02-20 13:21:00,
2013-02-20 05:26:00,42.6,33.5,29.44,WNW,295,0.0,0.0,70,0.00,,---,0.00,VWS V14.00,2013-02-20 13:26:00,
2013-02-20 05:31:00,42.6,33.5,29.44,WNW,295,0.0,0.0,70,0.00,,---,0.00,VWS V14.00,2013-02-20 13:31:00,
2013-02-20 05:36:00,42.4,33.4,29.44,WNW,295,0.0,0.0,70,0.00,,---,0.00,VWS V14.00,2013-02-20 13:36:00,
2013-02-20 05:41:00,42.4,33.4,29.44,WNW,295,0.0,0.0,70,0.00,,---,0.00,VWS V14.00,2013-02-20 13:41:00,
2013-02-20 05:46:00,42.4,33.4,29.44,WNW,295,0.0,0.0,70,0.00,,---,0.00,VWS V14.00,2013-02-20 13:46:00,
2013-02-20 05:51:00,42.4,33.4,29.44,WNW,295,0.0,0.0,70,0.00,,---,0.00,VWS V14.00,2013-02-20 13:51:00,
2013-02-20 05:57:00,42.4,33.4,29.44,WNW,295,0.0,0.0,70,0.00,,---,0.00,VWS V14.00,2013-02-20 13:57:00,
2013-02-20 06:02:00,42.4,33.0,29.44,WNW,295,0.0,0.0,69,0.00,,---,0.00,VWS V14.00,2013-02-20 14:02:00,
2013-02-20 06:07:00,42.4,33.0,29.44,WNW,295,0.0,0.0,69,0.00,,---,0.00,VWS V14.00,2013-02-20 14:07:00,
2013-02-20 06:12:00,42.3,32.5,29.44,WNW,295,0.0,0.0,68,0.00,,---,0.00,VWS V14.00,2013-02-20 14:12:00,
2013-02-20 06:17:00,42.4,32.6,29.44,WNW,295,0.0,0.0,68,0.00,,---,0.00,VWS V14.00,2013-02-20 14:17:00,
2013-02-20 06:22:00,42.4,32.6,29.41,WNW,295,0.0,0.0,68,0.00,,---,0.00,VWS V14.00,2013-02-20 14:22:00,
2013-02-20 06:27:00,42.6,32.8,29.41,WNW,295,0.0,0.0,68,0.00,,---,0.00,VWS V14.00,2013-02-20 14:27:00,
2013-02-20 06:32:00,42.4,32.6,29.41,WNW,295,0.0,0.0,68,0.00,,---,0.00,VWS V14.00,2013-02-20 14:32:00,
2013-02-20 06:37:00,42.6,32.8,29.41,WNW,295,0.0,0.0,68,0.00,,---,0.00,VWS V14.00,2013-02-20 14:37:00,
2013-02-20 06:42:00,42.6,32.8,29.41,WNW,295,0.0,0.0,68,0.00,,---,0.00,VWS V14.00,2013-02-20 14:42:00,
2013-02-20 06:47:00,42.6,32.8,29.41,WNW,295,0.0,0.0,68,0.00,,---,0.00,VWS V14.00,2013-02-20 14:47:00,
2013-02-20 06:52:00,42.6,32.8,29.41,WNW,295,0.0,0.0,68,0.00,,---,0.00,VWS V14.00,2013-02-20 14:52:00,
2013-02-20 06:57:00,42.4,32.6,29.41,South,182,0.0,0.0,68,0.00,,---,0.00,VWS V14.00,2013-02-20 14:57:00,
2013-02-20 07:02:00,42.4,32.6,29.41,South,182,0.0,0.0,68,0.00,,---,0.00,VWS V14.00,2013-02-20 15:02:00,
2013-02-20 07:07:00,42.6,32.4,29.41,South,182,0.0,0.0,67,0.00,,---,0.00,VWS V14.00,2013-02-20 15:07:00,
2013-02-20 07:12:00,42.8,32.6,29.41,South,182,0.0,0.0,67,0.00,,---,0.00,VWS V14.00,2013-02-20 15:12:00,
2013-02-20 07:17:00,42.8,32.6,29.41,South,182,0.0,0.0,67,0.00,,---,0.00,VWS V14.00,2013-02-20 15:17:00,
2013-02-20 07:22:00,42.8,32.6,29.41,South,182,0.0,0.0,67,0.00,,---,0.00,VWS V14.00,2013-02-20 15:22:00,
2013-02-20 07:27:00,43.0,32.8,29.41,South,182,0.0,0.0,67,0.00,,---,0.00,VWS V14.00,2013-02-20 15:27:00,
2013-02-20 07:32:00,42.8,32.2,29.41,South,182,0.0,0.0,66,0.00,,---,0.00,VWS V14.00,2013-02-20 15:32:00,
2013-02-20 07:37:00,42.6,31.7,29.41,South,172,0.0,0.0,65,0.00,,---,0.00,VWS V14.00,2013-02-20 15:37:00,
2013-02-20 20:26:00,45.1,37.7,29.38,ESE,107,0.0,0.0,75,0.00,,---,0.00,VWS V14.00,2013-02-21 04:26:00,
2013-02-20 20:31:00,45.1,37.4,29.38,ESE,107,0.0,0.0,74,0.00,,---,0.08,VWS V14.00,2013-02-21 04:31:00,
2013-02-20 20:36:00,45.1,37.4,29.41,ESE,107,0.0,0.0,74,0.00,,---,0.08,VWS V14.00,2013-02-21 04:36:00,
2013-02-20 20:41:00,45.1,37.4,29.41,ESE,107,0.0,0.0,74,0.00,,---,0.08,VWS V14.00,2013-02-21 04:41:00,
2013-02-20 20:46:00,45.3,37.5,29.41,ESE,107,0.0,0.0,74,0.00,,---,0.08,VWS V14.00,2013-02-21 04:46:00,
2013-02-20 20:51:00,45.3,37.5,29.41,ESE,107,0.0,0.0,74,0.00,,---,0.08,VWS V14.00,2013-02-21 04:51:00,
2013-02-20 20:56:00,45.5,37.7,29.41,ESE,107,0.0,0.0,74,0.00,,---,0.08,VWS V14.00,2013-02-21 04:56:00,
2013-02-20 21:00:00,45.5,37.7,29.41,ESE,107,0.0,0.0,74,0.00,,---,0.08,VWS V14.00,2013-02-21 05:00:00,
2013-02-20 21:06:00,45.5,37.7,29.41,ESE,107,0.0,0.0,74,0.00,,---,0.08,VWS V14.00,2013-02-21 05:06:00,
2013-02-20 21:11:00,45.5,37.7,29.41,ESE,107,0.0,0.0,74,0.00,,---,0.08,VWS V14.00,2013-02-21 05:11:00,
2013-02-20 21:16:00,45.5,37.7,29.41,ESE,107,0.0,0.0,74,0.00,,---,0.08,VWS V14.00,2013-02-21 05:16:00,
2013-02-20 21:21:00,45.5,37.4,29.41,ESE,107,0.0,0.0,73,0.00,,---,0.08,VWS V14.00,2013-02-21 05:21:00,
2013-02-20 21:26:00,45.3,37.2,29.41,ESE,107,0.0,0.0,73,0.00,,---,0.08,VWS V14.00,2013-02-21 05:26:00,
2013-02-20 21:31:00,45.3,37.2,29.41,ESE,107,0.0,0.0,73,0.00,,---,0.08,VWS V14.00,2013-02-21 05:31:00,
2013-02-20 21:36:00,45.3,37.2,29.41,ESE,107,0.0,0.0,73,0.00,,---,0.08,VWS V14.00,2013-02-21 05:36:00,
2013-02-20 21:41:00,45.3,37.2,29.41,ESE,107,0.0,0.0,73,0.00,,---,0.08,VWS V14.00,2013-02-21 05:41:00,
2013-02-20 21:46:00,45.3,36.8,29.41,ESE,107,0.0,0.0,72,0.00,,---,0.08,VWS V14.00,2013-02-21 05:46:00,
2013-02-20 21:51:00,45.3,36.8,29.41,ESE,107,0.0,0.0,72,0.00,,---,0.08,VWS V14.00,2013-02-21 05:51:00,
2013-02-20 21:56:00,45.3,36.8,29.41,ESE,107,0.0,0.0,72,0.00,,---,0.08,VWS V14.00,2013-02-21 05:56:00,
2013-02-20 22:01:00,45.3,36.8,29.41,ESE,107,0.0,0.0,72,0.00,,---,0.08,VWS V14.00,2013-02-21 06:01:00,
2013-02-20 22:06:00,45.5,37.0,29.41,ESE,107,0.0,0.0,72,0.00,,---,0.08,VWS V14.00,2013-02-21 06:06:00,
2013-02-20 22:11:00,45.5,37.0,29.41,ESE,107,0.0,0.0,72,0.00,,---,0.08,VWS V14.00,2013-02-21 06:11:00,
2013-02-20 22:16:00,45.5,37.0,29.41,ESE,107,0.0,0.0,72,0.00,,---,0.08,VWS V14.00,2013-02-21 06:16:00,
2013-02-20 22:21:00,45.3,36.8,29.41,ESE,107,0.0,0.0,72,0.00,,---,0.08,VWS V14.00,2013-02-21 06:21:00,
2013-02-20 22:26:00,45.5,37.0,29.41,ESE,107,0.0,0.0,72,0.00,,---,0.08,VWS V14.00,2013-02-21 06:26:00,
2013-02-20 22:31:00,45.5,37.0,29.41,ESE,107,0.0,0.0,72,0.00,,---,0.08,VWS V14.00,2013-02-21 06:31:00,
2013-02-20 22:36:00,45.5,37.0,29.41,ESE,107,0.0,0.0,72,0.00,,---,0.08,VWS V14.00,2013-02-21 06:36:00,
2013-02-20 22:41:00,45.5,37.0,29.41,ESE,107,0.0,0.0,72,0.00,,---,0.08,VWS V14.00,2013-02-21 06:41:00,
2013-02-20 22:46:00,45.5,37.0,29.41,ESE,107,0.0,0.0,72,0.00,,---,0.08,VWS V14.00,2013-02-21 06:46:00,
2013-02-20 22:51:00,45.5,37.0,29.41,ESE,107,0.0,0.0,72,0.00,,---,0.08,VWS V14.00,2013-02-21 06:51:00,
2013-02-20 22:56:00,45.7,37.2,29.41,ESE,107,0.0,0.0,72,0.00,,---,0.08,VWS V14.00,2013-02-21 06:56:00,
2013-02-20 23:01:00,45.5,36.7,29.41,ESE,107,0.0,0.0,71,0.00,,---,0.08,VWS V14.00,2013-02-21 07:01:00,
2013-02-20 23:06:00,45.5,36.7,29.41,ESE,107,0.0,0.0,71,0.00,,---,0.08,VWS V14.00,2013-02-21 07:06:00,
2013-02-20 23:11:00,45.5,36.7,29.41,ESE,107,0.0,0.0,71,0.00,,---,0.08,VWS V14.00,2013-02-21 07:11:00,
2013-02-20 23:16:00,45.5,36.7,29.41,ESE,107,0.0,0.0,71,0.00,,---,0.08,VWS V14.00,2013-02-21 07:16:00,
2013-02-20 23:21:00,45.3,36.5,29.41,ESE,107,0.0,0.0,71,0.00,,---,0.08,VWS V14.00,2013-02-21 07:21:00,
2013-02-20 23:26:00,45.3,36.5,29.41,ESE,107,0.0,0.0,71,0.00,,---,0.08,VWS V14.00,2013-02-21 07:26:00,
2013-02-20 23:31:00,45.1,36.3,29.41,ESE,107,0.0,0.0,71,0.00,,---,0.08,VWS V14.00,2013-02-21 07:31:00,
2013-02-20 23:36:00,44.8,35.6,29.41,ESE,107,0.0,0.0,70,0.00,,---,0.08,VWS V14.00,2013-02-21 07:36:00,
2013-02-20 23:41:00,44.6,35.4,29.41,ESE,107,0.0,0.0,70,0.00,,---,0.08,VWS V14.00,2013-02-21 07:41:00,
2013-02-20 23:46:00,44.4,35.6,29.41,ESE,107,0.0,0.0,71,0.00,,---,0.08,VWS V14.00,2013-02-21 07:46:00,
2013-02-20 23:51:00,44.6,35.8,29.41,ESE,107,0.0,0.0,71,0.00,,---,0.08,VWS V14.00,2013-02-21 07:51:00,
2013-02-20 23:56:00,44.6,35.8,29.41,ESE,107,0.0,0.0,71,0.00,,---,0.08,VWS V14.00,2013-02-21 07:56:00,